Location: Spruce Knob
(38.6995°N, 79.5330°W)
Time: 21:12:40
(UTC-04:00)

A-11 Canister half - Pass Details

Date: 28 January 2022
Orbit: 1513 x 1686 km, 47.2° (Epoch: 24 May)

Event Time Altitude Azimuth Distance (km) Brightness Sun altitude
Rises 19:05:01 0° 281° (WNW) 4,735 12.9 -17.6°
Reaches altitude 10° 19:08:17 10° 287° (WNW) 3,730 12.0 -18.2°
Maximum altitude 19:17:21 51° 2° (N) 1,861 9.3 -20.0°
Enters shadow 19:22:10 28° 62° (ENE) 2,530 9.6 -20.9°
Drops below altitude 10° 19:26:16 10° 77° (ENE) 3,670 - -21.7°
Sets 19:29:27 0° 82° (E) 4,654 - -22.3°
